Weather History for KAYS - January, 2014

Change the Weather History Date:

Monday, January 6, 2014

  Actual Average (KAMG) Record (KAMG)
Temperature  
Mean Temperature 49 °F 50 °F  
Max Temperature 66 °F 61 °F 79 °F (1950)
Min Temperature 30 °F 40 °F 16 °F (1959)
Degree Days  
Heating Degree Days 16 15  
Month to date heating degree days 90  
Since 1 July heating degree days 730  
Cooling Degree Days 0 0  
Month to date cooling degree days 0  
Year to date cooling degree days 0  
Moisture  
Dew Point 39 °F    
Average Humidity 70    
Maximum Humidity 100    
Minimum Humidity 41    
Precipitation  
Precipitation 0.00 in 0.13 in 1.88 in (1966)
Month to date precipitation 0.76  
Year to date precipitation 0.76  
Snow  
Snow 0.00 in 0.00 in 0.00 in ()
Month to date snowfall 0.0  
Since 1 July snowfall 0.1  
Snow Depth -    
Sea Level Pressure  
Sea Level Pressure 30.08 in    
Wind  
Wind Speed 12 mph (WNW)    
Max Wind Speed 24 mph    
Max Gust Speed 32 mph    
Visibility 10 miles    
Events      
T = Trace of Precipitation, MM = Missing Value Source: NWS Daily Summary

Daily Weather History Graph

Daily Weather History Graph

Search for Another Location

Airport or City:

Trip Planner

Search our weather history database for the weather conditions in past years. The results will help you decide how hot, cold, wet, or windy it might be!

Date:

Astronomy

Jan. 06, 2014 Rise Set
Actual Time 7:29 AM EST 5:41 PM EST
Civil Twilight 7:02 AM EST 6:08 PM EST
Nautical Twilight 6:32 AM EST 6:38 PM EST
Astronomical Twilight 6:03 AM EST 7:08 PM EST
Moon 11:08 AM EST (1/6) 11:47 PM EST (1/6)
Length of Visible Light 11h 05m
Length of Day
10h 12m
Waxing Crescent, 34% of the Moon is Illuminated
Jan 6
Waxing Crescent
Jan 7
First Quarter
Jan 15
Full
Jan 24
Last Quarter
Jan 30
New

Hourly Weather History & Observations

Time (EST) Temp. Windchill Dew Point Humidity Pressure Visibility Wind Dir Wind Speed Gust Speed Precip Events Conditions
12:15 AM 59.0 °F - 57.2 °F 94% 29.89 in 10.0 mi SSW 5.8 mph - N/A   Mostly Cloudy
12:35 AM 60.8 °F - 59.0 °F 94% 29.88 in 10.0 mi SSW 8.1 mph - N/A   Mostly Cloudy
12:55 AM 60.8 °F - 60.8 °F 100% 29.87 in 10.0 mi SSW 8.1 mph - N/A   Overcast
1:15 AM 62.6 °F - 60.8 °F 94% 29.86 in 7.0 mi SSW 9.2 mph - N/A   Mostly Cloudy
1:35 AM 62.6 °F - 62.6 °F 100% 29.87 in 5.0 mi SW 9.2 mph - N/A   Overcast
1:55 AM 62.6 °F - 62.6 °F 100% 29.86 in 5.0 mi SW 8.1 mph - N/A   Overcast
2:15 AM 64.4 °F - 64.4 °F 100% 29.86 in 5.0 mi SW 10.4 mph - N/A   Overcast
2:35 AM 64.4 °F - 64.4 °F 100% 29.85 in 5.0 mi SSW 11.5 mph 16.1 mph N/A   Overcast
2:55 AM 64.4 °F - 64.4 °F 100% 29.85 in 7.0 mi SW 10.4 mph - N/A   Overcast
3:15 AM 64.4 °F - 64.4 °F 100% 29.84 in 10.0 mi SW 11.5 mph - N/A   Mostly Cloudy
3:35 AM 64.4 °F - 64.4 °F 100% 29.84 in 10.0 mi SW 9.2 mph - N/A   Scattered Clouds
3:55 AM 66.2 °F - 64.4 °F 94% 29.84 in 10.0 mi SW 9.2 mph - N/A   Mostly Cloudy
4:15 AM 66.2 °F - 64.4 °F 94% 29.84 in 7.0 mi SW 8.1 mph - N/A   Overcast
4:35 AM 66.2 °F - 64.4 °F 94% 29.84 in 10.0 mi SW 8.1 mph - N/A   Overcast
4:55 AM 66.2 °F - 64.4 °F 94% 29.84 in 10.0 mi SW 11.5 mph - N/A   Overcast
5:15 AM 66.2 °F - 64.4 °F 94% 29.84 in 10.0 mi SW 9.2 mph - N/A   Overcast
5:35 AM 66.2 °F - 64.4 °F 94% 29.82 in 10.0 mi SSW 10.4 mph - N/A   Mostly Cloudy
5:55 AM 66.2 °F - 64.4 °F 94% 29.82 in 10.0 mi SW 10.4 mph - N/A   Mostly Cloudy
6:15 AM 66.2 °F - 64.4 °F 94% 29.81 in 10.0 mi SSW 12.7 mph 18.4 mph N/A   Overcast
6:35 AM 66.2 °F - 62.6 °F 88% 29.86 in 5.0 mi NW 24.2 mph 32.2 mph N/A   Overcast
6:55 AM 55.4 °F - 53.6 °F 94% 29.89 in 7.0 mi WNW 12.7 mph 24.2 mph N/A   Overcast
7:15 AM 53.6 °F - 51.8 °F 94% 29.92 in 10.0 mi WNW 15.0 mph 20.7 mph N/A   Overcast
7:35 AM 53.6 °F - 51.8 °F 94% 29.93 in 10.0 mi WNW 12.7 mph 20.7 mph N/A   Overcast
7:55 AM 53.6 °F - 50.0 °F 88% 29.95 in 10.0 mi NW 12.7 mph 18.4 mph N/A   Overcast
8:15 AM 51.8 °F - 48.2 °F 88% 29.97 in 10.0 mi WNW 12.7 mph 18.4 mph N/A   Unknown
8:35 AM 51.8 °F - 48.2 °F 88% 29.98 in 10.0 mi WNW 15.0 mph 19.6 mph N/A   Unknown
8:55 AM 50.0 °F - 46.4 °F 87% 30.00 in 10.0 mi WNW 13.8 mph 21.9 mph N/A   Unknown
9:15 AM 48.2 °F - 44.6 °F 87% 30.02 in 10.0 mi WNW 17.3 mph 24.2 mph N/A   Unknown
9:35 AM 48.2 °F - 42.8 °F 82% 30.05 in 10.0 mi WNW 17.3 mph 24.2 mph N/A   Unknown
9:55 AM 48.2 °F - 42.8 °F 82% 30.07 in 10.0 mi NW 23.0 mph 27.6 mph N/A   Unknown
10:15 AM 46.4 °F 39.5 °F 39.2 °F 76% 30.09 in 10.0 mi WNW 17.3 mph 25.3 mph N/A   Unknown
10:35 AM 44.6 °F 36.6 °F 39.2 °F 81% 30.11 in 10.0 mi NNW 19.6 mph 24.2 mph N/A   Unknown
10:55 AM 44.6 °F 37.2 °F 37.4 °F 76% 30.11 in 10.0 mi NW 17.3 mph 23.0 mph N/A   Unknown
11:15 AM 44.6 °F 36.4 °F 37.4 °F 76% 30.11 in 10.0 mi WNW 20.7 mph 25.3 mph N/A   Unknown
11:35 AM 44.6 °F 36.6 °F 35.6 °F 71% 30.12 in 10.0 mi WNW 19.6 mph 29.9 mph N/A   Unknown
11:55 AM 42.8 °F 34.5 °F 33.8 °F 70% 30.12 in 10.0 mi NW 18.4 mph 25.3 mph N/A   Unknown
12:15 PM 42.8 °F 36.2 °F 33.8 °F 70% 30.12 in 10.0 mi WNW 12.7 mph - N/A   Unknown
12:35 PM 44.6 °F 37.2 °F 33.8 °F 66% 30.11 in 10.0 mi WNW 17.3 mph 27.6 mph N/A   Unknown
12:55 PM 44.6 °F 37.2 °F 32.0 °F 61% 30.11 in 10.0 mi NW 17.3 mph 24.2 mph N/A   Unknown
1:15 PM 46.4 °F 38.5 °F 30.2 °F 53% 30.11 in 10.0 mi NW 21.9 mph 25.3 mph N/A   Unknown
1:35 PM 46.4 °F 39.0 °F 30.2 °F 53% 30.11 in 10.0 mi NNW 19.6 mph 29.9 mph N/A   Unknown
1:55 PM 46.4 °F 40.4 °F 30.2 °F 53% 30.12 in 10.0 mi NW 13.8 mph 21.9 mph N/A   Unknown
2:15 PM 48.2 °F - 30.2 °F 50% 30.12 in 10.0 mi WNW 17.3 mph 25.3 mph N/A   Unknown
2:35 PM 46.4 °F 39.0 °F 28.4 °F 50% 30.12 in 10.0 mi NW 19.6 mph 24.2 mph N/A   Unknown
2:55 PM 44.6 °F 38.8 °F 28.4 °F 53% 30.12 in 10.0 mi WNW 11.5 mph 20.7 mph N/A   Unknown
3:15 PM 44.6 °F 38.4 °F 30.2 °F 57% 30.13 in 10.0 mi WNW 12.7 mph 20.7 mph N/A   Unknown
3:35 PM 46.4 °F 39.5 °F 28.4 °F 50% 30.14 in 10.0 mi WNW 17.3 mph 21.9 mph N/A   Unknown
3:55 PM 44.6 °F 38.8 °F 28.4 °F 53% 30.15 in 10.0 mi NW 11.5 mph 23.0 mph N/A   Unknown
4:15 PM 44.6 °F 38.1 °F 28.4 °F 53% 30.15 in 10.0 mi WNW 13.8 mph 20.7 mph N/A   Unknown
4:35 PM 44.6 °F 38.4 °F 28.4 °F 53% 30.15 in 10.0 mi WNW 12.7 mph 20.7 mph N/A   Unknown
4:55 PM 44.6 °F 38.1 °F 26.6 °F 49% 30.16 in 10.0 mi WNW 13.8 mph 19.6 mph N/A   Unknown
5:15 PM 44.6 °F 38.4 °F 26.6 °F 49% 30.17 in 10.0 mi West 12.7 mph - N/A   Unknown
5:35 PM 42.8 °F 35.4 °F 24.8 °F 49% 30.18 in 10.0 mi WNW 15.0 mph 23.0 mph N/A   Unknown
5:55 PM 42.8 °F 37.0 °F 24.8 °F 49% 30.19 in 10.0 mi West 10.4 mph - N/A   Unknown
6:15 PM 42.8 °F 36.2 °F 24.8 °F 49% 30.21 in 10.0 mi WNW 12.7 mph 18.4 mph N/A   Unknown
6:35 PM 42.8 °F 35.4 °F 24.8 °F 49% 30.22 in 10.0 mi WNW 15.0 mph 23.0 mph N/A   Unknown
6:55 PM 41.0 °F 35.2 °F 24.8 °F 53% 30.23 in 10.0 mi WNW 9.2 mph 19.6 mph N/A   Unknown
7:15 PM 41.0 °F 33.5 °F 23.0 °F 49% 30.24 in 10.0 mi NW 13.8 mph 20.7 mph N/A   Unknown
7:35 PM 39.2 °F 31.2 °F 23.0 °F 52% 30.26 in 10.0 mi NW 13.8 mph 21.9 mph N/A   Unknown
7:55 PM 39.2 °F 30.8 °F 21.2 °F 49% 30.27 in 10.0 mi NW 15.0 mph 23.0 mph N/A   Unknown
8:15 PM 39.2 °F 30.2 °F 21.2 °F 49% 30.29 in 10.0 mi NW 17.3 mph - N/A   Unknown
8:35 PM 37.4 °F 27.8 °F 15.8 °F 41% 30.31 in 10.0 mi NW 17.3 mph 31.1 mph N/A   Unknown
8:55 PM 37.4 °F 29.3 °F 15.8 °F 41% 30.32 in 10.0 mi NW 12.7 mph 16.1 mph N/A   Unknown
9:15 PM 37.4 °F 28.9 °F 15.8 °F 41% 30.33 in 10.0 mi NW 13.8 mph 24.2 mph N/A   Unknown
9:35 PM 35.6 °F 24.5 °F 15.8 °F 44% 30.34 in 10.0 mi NW 20.7 mph 28.8 mph N/A   Unknown
9:55 PM 35.6 °F 25.5 °F 15.8 °F 44% 30.36 in 10.0 mi NW 17.3 mph 20.7 mph N/A   Unknown
10:15 PM 35.6 °F 25.2 °F 14.0 °F 41% 30.36 in 10.0 mi NW 18.4 mph 26.5 mph N/A   Unknown
10:35 PM 33.8 °F 23.9 °F 12.2 °F 41% 30.37 in 10.0 mi NW 15.0 mph 23.0 mph N/A   Unknown
10:55 PM 33.8 °F 23.9 °F 12.2 °F 41% 30.38 in 10.0 mi NW 15.0 mph 21.9 mph N/A   Unknown
11:15 PM 32.0 °F 21.6 °F 14.0 °F 48% 30.39 in 10.0 mi NW 15.0 mph 18.4 mph N/A   Unknown
11:35 PM 32.0 °F 22.1 °F 14.0 °F 48% 30.39 in 10.0 mi NW 13.8 mph 20.7 mph N/A   Unknown
11:55 PM 30.2 °F 18.5 °F 10.4 °F 44% 30.39 in 10.0 mi NW 17.3 mph 25.3 mph N/A   Unknown